Torna al catalogo

BREEZE-M DEB

TANK

AttivoHEO
NORAD 34712·DEBRIS·🇷🇺 Russia

Lanciato Apr 3, 2009 da Baikonur Cosmodrome

Loading…

Prossimi Passaggi (prossime 24 ore)

TLE

AggiornatoSource: Space-Track

Epoca: Sep 14, 2026, 03:24 UTC

1 34712U 09016C   26257.14218580  .00001325  00000-0  53071-3 0  9994
2 34712  45.9445 160.6765 4906143 339.7740   6.1542  5.69371972348564

Traccia BREEZE-M DEB in tempo reale con AllMySat

Download on the App Store